[[{"header":{"parameterUnit":"m.s-1","parameterCategory":1,"la1":30.2991,"la2":30.254,"lo1":-89.0895,"lo2":-89.0444,"dy":0.0017,"dx":0.0017,"nx":28,"ny":28,"refTime":"2023-03-31T21:00:00:Z","depth":0,"parameterNumber":2,"parameterNumberName":"U-component_of_WINDS"},"data":[0,0,0,0,0,0,0,0,0,0,0,0,0,0,0,0,0,0,0,0,0,0,0,0,0,0,0,0,0,0,0,0,0,0,0,0,0,0,0,0,0,0,0,0,0,0,0,0,0,0,0,0,0,0,0,0,0,0,0.773,0.773,0,0.7686,0.7686,0.7685,0.7644,0.7643,0.7643,0.7642,0.7598,0.7598,0.7597,0,0,0,0,0,0,0,0,0,0,0,0,0,0.778,0.778,0.773,0.773,0.7729,0.7686,0.7686,0.7685,0.7644,0.7643,0.7643,0.7642,0.7599,0.7598,0.7597,0,0,0,0,0,0,0,0,0,0,0,0,0,0.775,0.7779,0.773,0.7704,0.7701,0.7686,0.7686,0.7685,0.7644,0.7643,0.7643,0.7642,0.7599,0.7598,0.7597,0.7606,0,0,0.7594,0.7593,0,0,0,0,0,0,0,0,0.7751,0.7748,0.7708,0.7705,0.7702,0.767,0.7687,0.7659,0.7644,0.7666,0.7642,0.7641,0.7623,0.762,0.7613,0.7604,0.7602,0.7594,0.7593,0.7593,0.7592,0,0,0,0,0,0,0,0.7754,0.775,0.7713,0.7708,0.7704,0.7694,0.7689,0.7682,0.7649,0.7664,0.7661,0.7656,0.7621,0.7614,0.7612,0.7601,0.7594,0.7593,0.7592,0.7592,0.7597,0.7598,0,0,0,0,0,0,0.776,0.7752,0.7714,0.7712,0.7725,0.7694,0.7688,0.7681,0.7649,0.7644,0.7657,0.7654,0.7617,0.7613,0.761,0.7619,0.7593,0.7592,0.7591,0.7597,0.7598,0.7598,0,0,0,0,0,0,0.7761,0.7757,0.7716,0.7731,0.7725,0.7694,0.7686,0.7681,0.7674,0.7644,0.7638,0.7656,0.7616,0.7612,0.7607,0.7617,0.7591,0.759,0.7596,0.7597,0.7598,0.7636,0,0,0,0,0,0,0.7763,0.7757,0.776,0.7731,0.7724,0.7714,0.7687,0.768,0.7672,0.7668,0.7641,0.7636,0.7615,0.7609,0.7606,0.7615,0.7589,0.7595,0.7596,0.7598,0.7634,0.7639,0.7643,0,0,0,0,0,0.7764,0.7773,0.7761,0.7756,0.7727,0.7714,0.771,0.7686,0.7673,0.7676,0.7656,0.7637,0.7616,0.7609,0.7606,0.7614,0.7594,0.7596,0.7598,0.7632,0.7638,0.7643,0,0,0,0,0,0,0.7805,0.7769,0.7755,0.7754,0.7738,0.7707,0.771,0.7692,0.7679,0.7677,0.7646,0.7641,0.764,0.7626,0.7619,0.7621,0.7602,0.7604,0.763,0.7635,0.7639,0.7643,0.7589,0,0,0,0,0,0.7814,0.7806,0.7775,0.7777,0.777,0.7742,0.7735,0.7717,0.7699,0.7692,0.7672,0.7656,0.7646,0.764,0.7628,0.7632,0.7626,0.7636,0.764,0.7644,0.7645,0.7646,0.7651,0.7604,0.7604,0.7604,0,0,0.7832,0.7811,0.7808,0.7785,0.777,0.7763,0.7736,0.773,0.7724,0.7691,0.7686,0.7671,0.765,0.765,0.7649,0.7639,0.7657,0.7646,0.7649,0.7649,0.7648,0.7653,0.7657,0.7605,0.7605,0.7605,0,0,0.7861,0.7845,0.7845,0.7831,0.7808,0.7789,0.779,0.7762,0.7751,0.7745,0.772,0.7713,0.7696,0.7682,0.7673,0.7698,0.7679,0.7695,0.7717,0.7719,0.7722,0.7725,0.7734,0.7738,0.7696,0.7697,0.7697,0,0.7887,0.7875,0.7848,0.7843,0.7834,0.7803,0.7803,0.779,0.7766,0.776,0.7749,0.7727,0.7711,0.7707,0.7713,0.7707,0.7706,0.7698,0.7724,0.7727,0.7729,0.7737,0.7741,0.7699,0.7698,0.7698,0.7698,0,0.7907,0.79,0.7903,0.7879,0.787,0.7868,0.7841,0.7835,0.7818,0.7801,0.7795,0.7775,0.7759,0.7757,0.774,0.7751,0.7745,0.7729,0.771,0.7736,0.7743,0.7746,0.7702,0.7701,0.77,0.77,0,0,0.7961,0.7923,0.7924,0.7913,0.7886,0.788,0.7877,0.7861,0.7857,0.7841,0.7837,0.7823,0.7809,0.7798,0.778,0.7781,0.7802,0.7765,0.7764,0.7773,0.7812,0.7824,0.7828,0.779,0.779,0.779,0.7814,0,0.7986,0.7978,0.7953,0.7953,0.7945,0.7916,0.7913,0.7896,0.788,0.7872,0.7853,0.7844,0.7825,0.7819,0.7819,0.78,0.781,0.7798,0.7786,0.7786,0.7793,0.7832,0.7845,0.7868,0.7817,0.7817,0.7817,0,0.8015,0.8,0.7999,0.7972,0.7968,0.7966,0.795,0.7942,0.7922,0.791,0.7899,0.7878,0.7874,0.7855,0.7848,0.7841,0.7835,0.7825,0.7825,0.7823,0.7804,0.7832,0.7875,0.7878,0.7822,0.7821,0.7821,0,0.8054,0.8035,0.8031,0.8023,0.7992,0.7991,0.7978,0.7958,0.795,0.7935,0.793,0.7916,0.7908,0.7897,0.7874,0.7863,0.7869,0.7849,0.7859,0.786,0.7862,0.7862,0.7905,0.7858,0.7858,0.7858,0.7858,0,0.8085,0.8085,0.8048,0.8046,0.8046,0.8018,0.8018,0.8003,0.7985,0.798,0.7953,0.7949,0.7918,0.791,0.7891,0.7888,0.7885,0.7875,0.787,0.7878,0.7879,0.7873,0.7871,0.7859,0.7859,0.7859,0.7858,0,0.8129,0.8104,0.8099,0.807,0.8062,0.8063,0.8039,0.8036,0.8018,0.8011,0.8008,0.798,0.7969,0.7944,0.7927,0.7915,0.7916,0.7907,0.7923,0.792,0.7931,0.7931,0.7972,0.7976,0.7927,0.7928,0.7928,0,0.815,0.815,0.8121,0.8115,0.8103,0.8094,0.8086,0.8058,0.8051,0.8029,0.8029,0.8016,0.8004,0.7989,0.7967,0.7953,0.7944,0.7959,0.7942,0.7949,0.7944,0.7944,0.7944,0.7963,0.7964,0.7965,0.7965,0,0.8191,0.8179,0.8167,0.8152,0.8143,0.813,0.8115,0.8112,0.8081,0.8074,0.8063,0.8054,0.8036,0.8023,0.8007,0.7994,0.7974,0.7971,0.7972,0.798,0.7989,0.7984,0.7934,0.797,0.7969,0.7969,0.7969,0.7969,0.8224,0.8222,0.8201,0.819,0.8176,0.8163,0.8159,0.814,0.813,0.8113,0.8098,0.8088,0.8069,0.8044,0.8032,0.8024,0.8015,0.8017,0.8018,0.8019,0.8022,0.799,0.8021,0.8021,0.8021,0.8021,0.8021,0,0.8263,0.8248,0.8238,0.8218,0.8209,0.8192,0.8174,0.8168,0.816,0.8143,0.8132,0.8119,0.8107,0.8084,0.807,0.8068,0.8059,0.8066,0.8066,0.8063,0.8031,0.8031,0.8073,0.8073,0.8073,0.8073,0.8073,0.8073,0.8282,0.8278,0.8264,0.8253,0.8238,0.8228,0.822,0.8208,0.8194,0.8181,0.8171,0.8156,0.8137,0.8121,0.8109,0.8103,0.8099,0.8108,0.8099,0.807,0.8065,0.806,0.806,0.8108,0.8108,0.8131,0.8131,0.8131]},{"header":{"parameterUnit":"m.s-1","parameterCategory":1,"la1":30.2991,"la2":30.254,"lo1":-89.0895,"lo2":-89.0444,"dy":0.0017,"dx":0.0017,"nx":28,"ny":28,"refTime":"2023-03-31T21:00:00:Z","depth":0,"parameterNumber":3,"parameterNumberName":"V-component_of_WINDS"},"data":[0,0,0,0,0,0,0,0,0,0,0,0,0,0,0,0,0,0,0,0,0,0,0,0,0,0,0,0,0,0,0,0,0,0,0,0,0,0,0,0,0,0,0,0,0,0,0,0,0,0,0,0,0,0,0,0,0,0,5.7107,5.7109,0,5.7339,5.7342,5.7344,5.7395,5.7393,5.7391,5.739,5.7626,5.7634,5.7642,0,0,0,0,0,0,0,0,0,0,0,0,0,5.6708,5.6715,5.7107,5.711,5.7112,5.7339,5.7342,5.7345,5.7395,5.7393,5.7391,5.7389,5.7624,5.7633,5.7643,0,0,0,0,0,0,0,0,0,0,0,0,0,5.6905,5.6717,5.7106,5.7165,5.7172,5.7338,5.7342,5.7346,5.7395,5.7393,5.739,5.7388,5.7621,5.7632,5.7644,5.7768,0,0,5.768,5.7685,0,0,0,0,0,0,0,0,5.6893,5.6919,5.7153,5.7161,5.717,5.7335,5.7288,5.7487,5.7396,5.7311,5.7389,5.7387,5.7532,5.7551,5.76,5.7779,5.7789,5.7681,5.7688,5.7693,5.7697,0,0,0,0,0,0,0,5.688,5.6909,5.7199,5.7156,5.7167,5.718,5.7205,5.7326,5.7432,5.7318,5.7322,5.7349,5.7536,5.7588,5.7606,5.7792,5.7681,5.7691,5.7699,5.7703,5.8088,5.8091,0,0,0,0,0,0,5.6856,5.6898,5.7191,5.7206,5.7022,5.7189,5.7217,5.7285,5.7431,5.7451,5.7351,5.735,5.7569,5.7592,5.7614,5.7771,5.7693,5.7704,5.7711,5.8085,5.8088,5.8092,0,0,0,0,0,0,5.6847,5.6881,5.7182,5.7053,5.7092,5.7199,5.7274,5.7291,5.7343,5.7456,5.7475,5.7385,5.7568,5.7597,5.773,5.778,5.771,5.772,5.8081,5.8086,5.809,5.8084,0,0,0,0,0,0,5.6835,5.6878,5.6926,5.7054,5.7099,5.7293,5.7277,5.7297,5.7364,5.7365,5.7493,5.7512,5.7568,5.7712,5.7742,5.7795,5.773,5.8077,5.8083,5.8089,5.808,5.8088,5.8095,0,0,0,0,0,5.6821,5.6914,5.6928,5.6963,5.7161,5.7296,5.7322,5.7385,5.7367,5.7417,5.749,5.7508,5.7769,5.7725,5.7759,5.7816,5.8074,5.8081,5.8088,5.8077,5.8086,5.8094,0,0,0,0,0,0,5.6788,5.6931,5.6949,5.7086,5.7178,5.7304,5.7368,5.7393,5.7492,5.7489,5.7563,5.7592,5.772,5.7781,5.773,5.7945,5.7921,5.7935,5.7901,5.7911,5.7918,5.7901,5.7739,0,0,0,0,0,5.6797,5.6894,5.7015,5.7124,5.717,5.7261,5.7322,5.7363,5.7462,5.7501,5.7584,5.7679,5.7783,5.785,5.7952,5.8089,5.8119,5.8145,5.8152,5.8158,5.817,5.825,5.8264,5.8115,5.8115,5.8115,0,0,5.6815,5.6906,5.6963,5.712,5.7196,5.7297,5.7294,5.7399,5.7475,5.7517,5.7649,5.7712,5.7824,5.796,5.8024,5.8015,5.8217,5.8167,5.817,5.8179,5.8258,5.8272,5.8285,5.812,5.8119,5.8118,0,0,5.6902,5.6979,5.7081,5.7158,5.7275,5.7335,5.7359,5.7483,5.7527,5.766,5.7694,5.7785,5.7962,5.8041,5.8104,5.8223,5.8245,5.8254,5.8291,5.8369,5.838,5.8391,5.8436,5.8451,5.8265,5.8265,5.8265,0,5.6911,5.7064,5.7129,5.7235,5.7304,5.7347,5.7451,5.7523,5.7666,5.7713,5.7701,5.7926,5.8004,5.816,5.819,5.8238,5.827,5.824,5.8373,5.8385,5.8396,5.844,5.8456,5.8265,5.8265,5.8265,5.8265,0,5.707,5.7176,5.7243,5.7383,5.7459,5.7562,5.7645,5.7714,5.7749,5.7811,5.7946,5.8042,5.8165,5.8204,5.8238,5.8367,5.8358,5.8358,5.8336,5.841,5.8452,5.8469,5.8266,5.8266,5.8266,5.8266,0,0,5.7142,5.7317,5.7341,5.7406,5.7539,5.7622,5.7729,5.785,5.7909,5.8007,5.81,5.8249,5.8252,5.8323,5.8367,5.8434,5.8526,5.8427,5.8431,5.8444,5.8676,5.8676,5.8694,5.854,5.8543,5.8546,5.8667,0,5.7246,5.7439,5.7502,5.7662,5.7762,5.7806,5.7899,5.7991,5.8052,5.8146,5.8213,5.8319,5.8313,5.8357,5.8426,5.85,5.8573,5.8492,5.8628,5.8632,5.8601,5.8716,5.8716,5.8826,5.8684,5.8687,5.8689,0,5.7394,5.7496,5.7666,5.7789,5.7833,5.7916,5.8034,5.8122,5.8228,5.8268,5.8349,5.8388,5.8503,5.8472,5.8632,5.8575,5.8634,5.8679,5.8685,5.8702,5.8666,5.8738,5.8862,5.8879,5.8715,5.8713,5.8711,0,5.7432,5.7611,5.7738,5.7791,5.7937,5.7995,5.8058,5.8162,5.8231,5.8334,5.838,5.8494,5.8557,5.8645,5.8714,5.8685,5.8869,5.8843,5.8906,5.8905,5.8944,5.8941,5.9082,5.8979,5.8979,5.8978,5.8978,0,5.7543,5.7646,5.7757,5.7835,5.7952,5.8024,5.8139,5.8205,5.8297,5.8389,5.8433,5.8518,5.8604,5.8701,5.8755,5.8881,5.8908,5.8944,5.8958,5.8942,5.8938,5.8983,5.8978,5.8983,5.8982,5.8981,5.898,0,5.7606,5.7684,5.7825,5.7952,5.7987,5.8068,5.8177,5.8255,5.8318,5.8434,5.8466,5.8565,5.8682,5.876,5.8908,5.8945,5.9082,5.9093,5.9047,5.9054,5.9114,5.9108,5.929,5.9319,5.9194,5.9195,5.9196,0,5.7672,5.7753,5.789,5.7955,5.8019,5.8123,5.8195,5.8269,5.8343,5.8471,5.8534,5.8653,5.8754,5.8938,5.9024,5.9139,5.9154,5.921,5.9171,5.9153,5.9158,5.9153,5.9163,5.9216,5.9217,5.9218,5.9219,0,5.7783,5.7818,5.792,5.8037,5.8122,5.8217,5.8313,5.8364,5.8455,5.8535,5.8656,5.8733,5.8886,5.9006,5.9129,5.9195,5.9223,5.923,5.9252,5.9237,5.9208,5.9227,5.9066,5.9226,5.9225,5.9225,5.9224,5.9224,5.7852,5.7927,5.8035,5.8148,5.8228,5.8317,5.8397,5.8472,5.8574,5.8705,5.8742,5.8868,5.8975,5.9143,5.9211,5.9312,5.9306,5.9336,5.9344,5.9351,5.9352,5.919,5.9334,5.9334,5.9334,5.9334,5.9334,0,5.7967,5.8039,5.8143,5.8276,5.8365,5.8384,5.8492,5.8565,5.8676,5.8773,5.8871,5.9011,5.9128,5.9223,5.9344,5.9406,5.9422,5.9435,5.9432,5.9448,5.9349,5.932,5.942,5.942,5.942,5.942,5.942,5.942,5.8037,5.8166,5.8215,5.8384,5.8456,5.8581,5.8641,5.8724,5.8802,5.8956,5.9054,5.9116,5.9213,5.9341,5.9449,5.9475,5.9518,5.9529,5.9557,5.9464,5.9454,5.9445,5.9418,5.9537,5.9537,5.9647,5.9648,5.9649]}]]